Regional Weather Roundup
Issued by NWS Pendleton, OR

Home | Current Version | Previous Version | Text Only | Print | Product List | Glossary On
Versions: 1 2 3 4 5 6 7 8 9 10 11 12 13 14 15 16 17 18 19 20 21 22 23 24 25 26 27 28 29 30 31 32 33 34 35 36 37 38 39 40 41 42 43 44 45 46 47 48 49 50
000
ASUS46 KPDT 221710
RWRPDT
PENDLETON REGIONAL WEATHER ROUNDUP
NATIONAL WEATHER SERVICE PENDLETON OREGON
900 AM PST WED NOV 22 2017

NOTE: FAIR INDICATES FEW OR NO CLOUDS BELOW 12,000 FEET WITH NO
SIGNIFICANT WEATHER AND/OR OBSTRUCTIONS TO VISIBILITY.

# INDICATES UNOFFICIAL STATION AND DATA

WAZ520-221810-
EAST SLOPES OF WASHINGTON CASCADES

CITY            SKY/WX      TMP DP  RH  WIND    PRES   REMARKS
#BULLFROG       N/A         36  N/A N/A S1      N/A
#CLE ELUM HS    N/A         37  36  96  CALM    30.06R
#CLE ELUM LAKE  N/A         38  38  100 CALM    30.15R
#EASTON DOT     N/A         35  35  100 CALM    N/A
#ELK HTS DOT    N/A         37  37  100 CALM    N/A
#GLENWOOD       N/A         44  44  100 CALM    30.14R
#NELSON 3SW     N/A         36  35  96  CALM    30.37R
#NILE           N/A         40  39  96  CALM    29.42R
#TEANAWAY 4NE   N/A         36  36  100 CALM    N/A
#TROUT LAKE 1NE N/A         46  45  96  CALM    30.13R
#TROUT LAKE 1E  N/A         46  45  96  CALM    30.14R
$$

WAZ521-221810-
SIMCOE HIGHLANDS

CITY            SKY/WX      TMP DP  RH  WIND    PRES   REMARKS
#BICKLETON HS   N/A         N/A N/A N/A CALM    30.11R
#SATUS PASS DOT N/A         51  49  93  CALM    N/A
#CENTERVILLE 1SWN/A         41  36  82  CALM    30.11R
#GOLDENDALE 4W  N/A         45  42  89  CALM    30.14S
#GOODNOE HILLS  N/A         44  43  96  NE2     N/A
#LYLE 6NE       N/A         45  44  96  CALM    30.14S
#PITT 4SE       N/A         48  47  96  CALM    30.16R
$$

WAZ026-221810-
KITTITAS VALLEY

CITY            SKY/WX      TMP DP  RH  WIND    PRES   REMARKS
ELLENSBURG AP   PTCLDY      40  37  89  CALM    30.11R FOG
#ELLENSBURG CWU N/A         37  36  96  CALM    30.11R
#ELLENSBURG 3NE N/A         37  36  96  CALM    28.19R
#ELLENSBURG 1E  N/A         37  36  96  CALM    30.22R
#KITTITAS 3S    N/A         38  37  96  CALM    30.15R
#MANASTASH RDG  N/A         39  39  100 N1      N/A
#RYEGRASS DOT   N/A         37  36  96  W1      N/A
$$

WAZ027-221810-
YAKIMA VALLEY

CITY            SKY/WX      TMP DP  RH  WIND    PRES   REMARKS
SUNNYSIDE AP    CLOUDY      42  40  93  CALM    30.14R FOG
YAKIMA AIRPORT  CLOUDY      43  40  89  CALM    30.13R
YAKIMA-VAGABOND FOG         39  37  92  CALM    30.11R VSB<1/4
#DONALD 2NE     N/A         43  39  86  CALM    28.98R
#GRANDVIEW      N/A         42  41  96  CALM    30.09R
#MABTON         N/A         43  42  96  CALM    30.13R
#MOXEE 2E       N/A         34  N/A N/A CALM    30.08R
#NACHES 2SW     N/A         42  41  96  CALM    30.08S
#OUTLOOK DOT    N/A         42  42  100 CALM    30.10R
#PARKER DOT     N/A         42  41  96  SE2     30.12R
#TERRACE HTS    N/A         40  39  96  CALM    30.13R
#TOPPENISH      N/A         42  41  96  CALM    30.07R
#I82 S UMTANUM RN/A         41  39  93  SE1     N/A
#UNION GAP DOT  N/A         41  40  96  N2      30.17R
#W YAKIMA       N/A         41  40  96  CALM    30.17R
#WHITE SWAN 5E  N/A         42  41  96  CALM    30.16R
#WILEY CITY 3W  N/A         42  38  86  CALM    30.09R
#ZILLAH DOT     N/A         42  N/A N/A W2      N/A
$$

WAZ028-221810-
LOWER COLUMBIA BASIN...WASHINGTON

CITY            SKY/WX      TMP DP  RH  WIND    PRES   REMARKS
PASCO           CLOUDY      45  43  93  NW8     30.15R
PROSSER AWOS    N/A         43  43  100 CALM    30.17R
RICHLAND AWOS   MOCLDY      45  44  96  NW6     30.14S
#BENTON CITY    N/A         43  42  96  CALM    30.05S
#CONNELL 5N     N/A         44  43  96  N2      30.14R
#CONNELL 5NW    N/A         44  43  96  N1      30.09R
#ELTOPIA 6NW    N/A         43  42  96  CALM    29.08F
#KAHLOTUS       N/A         45  44  96  CALM    30.12F
#KENNEWICK 3S   N/A         44  42  93  CALM    30.15R
#PATERSON       N/A         45  43  93  NE1     30.12S
#PROSSER DOT    N/A         44  43  96  CALM    30.15R
#SAGEMOOR 2W    N/A         43  42  96  N2      30.01R
#WEST PASCO     N/A         45  44  96  CALM    30.15R
$$

WAZ029-221810-
FOOTHILLS OF THE BLUES...WASHINGTON

CITY            SKY/WX      TMP DP  RH  WIND    PRES   REMARKS
WALLA WALLA AP  CLOUDY      54  52  93  CALM    30.11R
#CLYDE 6NW      N/A         51  50  96  CALM    30.11S
#DAYTON SCHOOL  N/A         59  50  72  CALM    30.10F
#DELANEY DOT    N/A         47  46  96  CALM    30.12R
#PLEASANT VIEW 1N/A         56  53  90  CALM    30.16S
#PRESCOTT       N/A         51  49  93  CALM    30.11R
#WHITMAN COLLEGEN/A         46  45  96  CALM    30.18S
#WAITSBURG 5S   N/A         59  53  80  CALM    30.21S
#WAITSBURG 6SSE N/A         62  52  70  SE6     30.09F
#WAITSBURG 8N   N/A         61  N/A N/A S5      30.15S
#WALLA WALLA 5E N/A         59  52  78  W8      N/A
#WALLA WALLA U  N/A         46  45  96  CALM    30.13R
#WHITMAN MISSIONN/A         45  44  96  CALM    30.14S
$$

WAZ030-221810-
BLUE MOUNTAINS...WASHINGTON

CITY            SKY/WX      TMP DP  RH  WIND    PRES   REMARKS
#DIXIE 5SE      N/A         60  50  69  SE14G24 30.07R
$$

ORZ009-041-WAZ024-221810-
COLUMBIA RIVER GORGE

CITY            SKY/WX      TMP DP  RH  WIND    PRES   REMARKS
HOOD RIVER AP   LGT RAIN    45  43  93  CALM    30.15R
THE DALLES AP   CLOUDY      47  45  93  SE3     30.14R FOG
#ARLINGTON AIRPON/A         43  42  96  CALM    30.16S
#ARLINGTON HS   N/A         45  43  93  CALM    30.06R
#CELILO DOT     N/A         47  43  86  CALM    N/A
#LYLE           N/A         47  46  96  CALM    30.14S
#MARYHILL       N/A         44  N/A N/A N1      N/A
#MURDOCK        N/A         46  45  96  CALM    30.11R
#RUFUS DOT      N/A         46  N/A N/A CALM    N/A
#SMITHVILLE     N/A         46  44  93  E2      30.10R

$$

ORZ510-221810-
NORTH CENTRAL OREGON

CITY            SKY/WX      TMP DP  RH  WIND    PRES   REMARKS
#ANTELOPE       N/A         57  48  72  CALM    29.96R
#CHENOWITH 1W   N/A         46  43  89  NW6     N/A
#COW CYN RST AREN/A         60  N/A N/A S6      N/A
#DUFUR          N/A         44  43  96  CALM    30.10R
#DUFUR 9E       N/A         52  51  96  N3      30.17R
#GRASS VALLEY 1SN/A         54  50  86  CALM    30.11R
#KENT DOT       N/A         56  41  57  SE3     N/A
#MAUPIN SCHOOL  N/A         46  43  89  CALM    30.16R
#SHANIKO 5WSW   N/A         57  N/A N/A S12     N/A
#SHANIKO 4NW    N/A         57  44  62  S15     30.12R
#TYGH VALLEY 2NEN/A         46  45  96  CALM    30.11S
#WAPANITIA AIRPON/A         45  44  96  CALM    30.14S
#WASCO DOT      N/A         44  44  100 CALM    N/A
#WASCO 5NE      N/A         43  25  49  CALM    30.14R
$$

ORZ511-221810-
CENTRAL OREGON

CITY            SKY/WX      TMP DP  RH  WIND    PRES   REMARKS
BEND AIRPORT    MOCLDY      55  45  69  S7      30.16F
PRINEVILLE AP   CLOUDY      61  43  51  S13     30.17S
REDMOND AIRPORT MOCLDY      59  44  57  S12     30.13F
#ASHWOOD SCHOOL N/A         63  45  52  SE8     30.06S
#BEND 1SW       N/A         51  46  83  SW3     N/A
#BEND-AWBREY    N/A         55  47  74  SW12    30.06F
#BEND-KIM LN    N/A         61  47  60  SE12    29.98S
#CULVER         N/A         60  45  58  SE13G24 29.88S
#CULVER 8W      N/A         59  43  55  S1      30.11R
#LAKE BILLY CHINN/A         57  N/A N/A CALM    30.16S
#MADRAS 4S      N/A         62  15  16  S20     N/A
#POWELL BUTTE   N/A         61  41  48  S18     30.08F
#PRINEVILLE     N/A         62  45  54  CALM    30.14F
#PRINEVILLE 3N  N/A         59  46  62  E3      30.07S
#WARM SPRINGS   N/A         54  49  83  CALM    29.94S

$$


ORZ509-221810-
EAST SLOPES OF OREGON CASCADES

CITY            SKY/WX      TMP DP  RH  WIND    PRES   REMARKS
SISTERS AWOS    N/A         55  46  72  E6      N/A
#BLUE BOX PASS  N/A         49  N/A N/A CALM    N/A
#CAMP SHERMAN   N/A         49  47  93  CALM    30.16R
#LA PINE DOT    N/A         51  38  61  SE3     N/A
#LA PINE 4NW    N/A         49  43  80  CALM    30.20R
#LAVA BUTTE DOT N/A         51  40  66  SW2     N/A
#SISTERS ODOT   N/A         55  45  69  CALM    N/A
#SISTERS 3N     N/A         55  46  72  CALM    30.14R
#SUNRIVER       N/A         52  46  80  S3      30.12F
#TUMALO 3W      N/A         59  46  62  SE8     29.93F
#WANOGA BUTTE D N/A         44  44  100 W14     N/A    WCI 37

$$

ORZ044-221810-
LOWER COLUMBIA BASIN...OREGON

CITY            SKY/WX      TMP DP  RH  WIND    PRES   REMARKS
HERMISTON       CLOUDY      46  45  96  S5      30.12R
#BOARDMAN SCHOOLN/A         45  44  96  N1      30.13R
#BOARDMAN 8SW   N/A         44  43  96  W1      30.16R
#ECHO 8SW       N/A         45  45  100 CALM    30.14R
#I-84 EX 198 DOTN/A         45  43  93  CALM    N/A
#IONE SCHOOL    N/A         44  31  60  CALM    30.16R
#UMATILLA       N/A         46  42  86  CALM    30.07R
$$

ORZ507-221810-
NORTHERN FOOTHILLS OF THE BLUES

CITY            SKY/WX      TMP DP  RH  WIND    PRES   REMARKS
PENDLETON AIRPT CLOUDY      54  52  93  SE5     30.10S
#ADAMS 3WNW     N/A         58  53  83  CALM    30.11R
#ATHENA         N/A         62  52  70  E3      30.15R
#CAYUSE         N/A         65  51  60  S14     30.13R
#HELIX SCHOOL   N/A         56  53  90  N3      30.12S
#HELIX 3N       N/A         57  52  83  SE12    30.08S
#HOLDMAN 5SE    N/A         49  47  93  CALM    30.09S
#HOLDMAN 6E     N/A         59  53  80  E1      29.92S
#M-F GROVE ELEM N/A         49  45  86  E2      30.08R
#M-FREEWATER 5SEN/A         64  52  65  E9      30.10R
#PENDLETON DNTN N/A         47  46  96  CALM    30.10R
#PDT AQUATIC CTRN/A         47  47  100 CALM    30.15S
#PDT SUNRIDGE   N/A         47  46  96  CALM    30.12R
#PENDLETON 6SE  N/A         56  52  86  S2      30.08S
#PENDLETON 7NW  N/A         46  43  89  CALM    29.18F
#PILOT ROCK 1S  N/A         67  46  47  CALM    30.12R
#PILOT ROCK     N/A         60  52  75  CALM    30.12R
#TUTUILLA       N/A         51  49  93  CALM    30.17R
#UMAPINE 2E     N/A         46  45  96  CALM    30.09S
#WESTON SCHOOL  N/A         63  50  62  SW7     30.05R

$$

ORZ508-221810-
SOUTHERN FOOTHILLS OF THE BLUES

CITY            SKY/WX      TMP DP  RH  WIND    PRES   REMARKS
LEXINGTON       MOCLDY      45  45  100 CALM    30.14R
#AJAX           N/A         54  47  77  CALM    30.24F
#CONDON 5W      N/A         58  48  69  CALM    30.11S
#HEPPNER EOC    N/A         64  48  56  SE5     30.05R
#HEPPNER 4NE    N/A         61  49  65  S2      30.09R
#LEXINGTON 2SE  N/A         46  43  89  CALM    30.06R
#MIKKALO        N/A         45  44  96  CALM    30.20R
#OLEX 4N        N/A         43  42  96  CALM    30.10S
#RUGGS 5NE      N/A         61  47  60  E6      30.27S
#RUGGS 2SW      N/A         59  48  67  SW5     30.10R

$$

ORZ502-503-221810-
BLUE MOUNTAINS

CITY            SKY/WX      TMP DP  RH  WIND    PRES   REMARKS
MEACHAM         CLOUDY      50  49  96  CALM    30.21R
#BATTLE MTN DOT N/A         52  44  74  S8      N/A
#GRANITE        N/A         46  46  100 CALM    30.29R
#GREENHORN 9SW  N/A         47  47  100 CALM    30.22R
#HARDMAN 10S    N/A         52  46  80  S8      30.27R
#LADD CYN SMT   N/A         51  49  93  SE13    N/A
#LADD CREEK ODOTN/A         53  48  83  S8      N/A
#LONG CREEK HS  N/A         59  48  67  SW9     30.21R
#N POWDER DOT   N/A         51  48  89  W8      N/A
#PIKES PEAK     N/A         61  47  60  CALM    27.99S
#TOLLGATE       N/A         45  44  96  CALM    30.06S
#TROY SCHOOL    N/A         46  45  96  CALM    30.09R
#UKIAH          N/A         52  49  89  CALM    30.09R
#WESTON 4E      N/A         55  50  83  E8      30.09R
$$

ORZ505-221810-
JOHN DAY BASIN

CITY            SKY/WX      TMP DP  RH  WIND    PRES   REMARKS
JOHN DAY        MOCLDY      56  49  77  E6      30.24S
#ANTELOPE 9ESE  N/A         52  49  89  CALM    N/A
#DAYVILLE SCHOOLN/A         57  48  72  CALM    30.15S
#MITCHELL 8NW   N/A         58  45  62  CALM    30.14R
#MONUMENT HS    N/A         51  49  93  NW1     30.12R
#WINLOCK        N/A         62  54  75  N2      30.12R
$$

ORZ506-221810-
OCHOCO AND JOHN DAY HIGHLANDS

CITY            SKY/WX      TMP DP  RH  WIND    PRES   REMARKS
#HORSE RIDGE DO N/A         55  40  57  SE12    N/A
#PAULINA ODOT   N/A         55  43  64  SW8     N/A
#PINE MTN OBS   N/A         45  40  82  S22G35  N/A    WCI 37
#PRAIRIE CITY   N/A         50  49  96  CALM    30.38
#SENECA         N/A         48  N/A N/A E2      N/A
#SENECA 9NW     N/A         44  43  96  CALM    30.22R
$$

ORZ049-221810-
GRANDE RONDE VALLEY

CITY            SKY/WX      TMP DP  RH  WIND    PRES   REMARKS
LA GRANDE       PTCLDY      56  50  80  S16     30.23R
#COVE SCHOOL    N/A         53  52  96  CALM    30.24R
#COVE 6NW       N/A         54  50  86  S8      30.21R
#ELGIN 3N       N/A         55  50  83  CALM    30.63R
#ELGIN 1E       N/A         54  49  83  CALM    N/A
#IMBLER SCHOOL  N/A         53  50  89  CALM    30.18R
#ISLAND CITY 4N N/A         57  56  96  CALM    30.06R
#LADD CYN DOT   N/A         56  51  83  S20G28  N/A
#UNION 1S       N/A         57  51  80  SE7     30.22R
$$

ORZ050-221810-
WALLOWA COUNTY

CITY            SKY/WX      TMP DP  RH  WIND    PRES   REMARKS
JOSEPH AIRPORT  PTCLDY      52  46  80  SW3     30.23R
#ENTERPRISE HS  N/A         50  48  93  CALM    30.09
#IMNAHA SCHOOL  N/A         56  53  90  N7      30.17F
#IMNAHA 10S     N/A         52  49  89  CALM    30.19F
#JOSEPH         N/A         53  47  80  S5      30.63R
#JOSEPH 3N      N/A         52  47  83  SW2     30.22F
#JOSEPH 3W      N/A         50  50  100 SW1     30.66R
#LOSTINE        N/A         43  41  93  CALM    30.08R
#LOSTINE 3SE    N/A         43  42  96  E2      30.28R
#MT HOWARD 8000 N/A         42  38  86  SW12G26 30.34S WCI 35
#PROMISE 1S     N/A         50  49  96  NE1     30.25F
#WALLOWA SCHOOL N/A         42  41  96  CALM    30.18S



$$



USA.gov is the U.S. government's official web portal to all federal, state and local government web resources and services.